Flag for Brazil Weather past 2 weeks in São Paulo, São Paulo, Brazil

Now
63 °F

Mild.


Feels Like: 63 °F
Forecast: 62 / 68 °F
Wind: 5 mph from Northeast

Location: Sao Paulo Airport

Current Time: Jul 8, 2015 at 1:45:14 AM

Latest Report: Jul 8, 2015 at 1:00 AM


Visibility: 6 mi

Pressure: 30.09 "Hg (27.50 "Hg at 765m altitude)

Humidity: 88%

Dew point: 59 °F

Location of São PauloLocation

Historic Weather in São Paulo — Graph

°F

São Paulo temperature yesterday

Maximum temperature yesterday: 68 °F (at 2:00 PM)
Minimum temperature yesterday: 59 °F (at 2:00 AM)
Average temperature yesterday: 62 °F

Past Weeks' High & Low Weather Summary

 TemperatureHumidityPressure
High77 °F (Jun 23, 1:00 PM)94% (Jun 24, 7:00 AM)30.54 "Hg (Jun 24, 7:00 AM)
Low52 °F (Jul 4, 8:00 PM)34% (Jul 7, 11:00 AM)29.98 "Hg (Jul 3, 3:00 PM)
Average61 °F77%30.25 "Hg
* Reported Midnight between Jun 22 and Jun 23 — Midnight between Jul 7 and Jul 8, São Paulo, Weather by CustomWeather, © 2015

Note: Actual official high and low records may vary slightly from our data, if they occured in-between our weather recording intervals... More about our weather records

Advertising

São Paulo weather history for previous 24 hours

 ConditionsComfort  
Time TempWeatherWind HumidityBarometerVisibility
12:00 AM
Wed, Jul 8
63 °FMild.2 mph88%30.09 "Hg5 mi
11:00 PM
Tue, Jul 7
63 °FLight rain. Fog.2 mph88%30.12 "Hg3 mi
10:00 PM64 °FOvercast.6 mph83%30.12 "Hg4 mi
9:00 PM63 °FMostly cloudy.7 mph88%30.12 "Hg4 mi
8:00 PM63 °FMostly cloudy.9 mph88%30.15 "Hg4 mi
7:00 PM63 °FLight rain. Mostly cloudy.7 mph88%30.15 "Hg5 mi
6:00 PM64 °FLight rain. Mostly cloudy.8 mph83%30.12 "Hg4 mi
5:00 PM64 °FLight rain. Mostly cloudy.12 mph88%30.12 "Hg5 mi
4:00 PM66 °FLight rain. Broken clouds.9 mph83%30.12 "Hg5 mi
3:00 PM68 °FLight rain. Broken clouds.8 mph78%30.09 "HgN/A
2:00 PM68 °FLight rain. Partly sunny.6 mph73%30.12 "Hg5 mi
1:00 PM66 °FClear.2 mph78%30.12 "Hg4 mi
12:00 PM64 °FPartly sunny.5 mph83%30.15 "Hg4 mi
11:00 AM63 °FLight rain. Broken clouds.3 mph34%N/A4 mi
10:00 AM61 °FRain. Fog.2 mph88%30.18 "Hg3 mi
9:00 AM59 °FRain. Fog.6 mph88%N/A1 mi
8:55 AM59 °FRain. Fog.7 mph88%N/A1 mi
8:00 AM59 °FFog.7 mph88%30.18 "Hg3 mi
7:00 AM59 °FLow clouds.3 mph88%30.15 "Hg4 mi
6:00 AM59 °FFog.6 mph88%30.15 "Hg3 mi
5:00 AM59 °FPartly cloudy.5 mph88%30.12 "Hg5 mi
4:00 AM59 °FPartly cloudy.6 mph88%30.12 "Hg5 mi
3:00 AM59 °FPassing clouds.7 mph82%30.15 "HgN/A
2:00 AM59 °FPassing clouds.6 mph88%30.15 "HgN/A
1:00 AM61 °FPassing clouds.5 mph83%30.18 "HgN/A
Weather by CustomWeather, © 2015

See weather overviewHow to use our weather pages